Weather in Pangkalan Bun

Indonesia     2°36′17″S   111°37′35″E
temp.,
°C
wind,
m/s
gust,
m/s
humid.,
%
clouds,
%
prec.,
mm/h
press.,
hPa
HPBL,
m
13 may, thu
thu1301:00+24ene1198100 2.0 100618
04:00+24ene1298100 0.0 100656
07:00+25ene1595100 0.0 1008210
10:00+28e2485100 2.9 1009496
13:00+30ene237192 4.5 1006932
16:00+26nnw1287100 1.2 1006169
19:00+25s0092100 1.2 100719
22:00+24ne119693 0.0 100818
14 may, fri
fri1401:00+24ne1197100 0.0 100738
04:00+23nne129988 0.0 100660
07:00+26ene138730 0.0 1008278
10:00+32e236071 0.0 10071410
13:00+31ese127074 1.4 1004787
16:00+28ssw149099 3.0 1005146
19:00+25sse1497100 3.3 1007115
22:00+25se1798100 0.1 1008201
15 may, sat
sat1501:00+24ene1199100 0.3 100621
04:00+24ne1299100 0.1 100654
07:00+25e1494100 0.4 1008214
10:00+29se2479100 2.6 1008722
13:00+29sse238196 5.8 1005714
16:00+27s2683100 1.0 1005347
19:00+25se1391100 1.6 100793
22:00+24ene1197100 1.3 100829
16 may, sun
sun1601:00+24ne129977 2.4 100688
04:00+24ene1299100 0.0 100696
07:00+25ene139683 0.0 1008195
10:00+28ene127973 0.4 1008653
13:00+29s228595 3.6 1005500
16:00+27s2590100 3.8 1005255
19:00+25sse1196100 6.3 100730
22:00+24sse119868 0.4 100820
17 may, mon
mon1701:00+24e1199100 0.8 100717
04:00+24e1299100 1.7 100668
07:00+25e1397100 2.0 1009175
10:00+27e138994 0.6 1009388
13:00+26ene269493 4.8 1007410
16:00+24ne1596100 2.3 1008202
19:00+23n2899100 11.4 1010439
22:00+23nnw2899100 7.4 1010328